Location: Prairie View Elementary School
(39.8322°N, 99.5698°W)
Time: 19:12:23
(UTC+00:00)

OAO 3 Rocket - Pass Details

Date: 08 December 2019
Orbit: 629 x 683 km, 35.0° (Epoch: 19 January)

Event Time Altitude Azimuth Distance (km) Brightness Sun altitude
Rises 00:12:03 0° 237° (WSW) 2,919 8.3 -11.1°
Reaches altitude 10° 00:14:33 10° 228° (SW) 2,019 6.9 -11.5°
Maximum altitude 00:18:46 33° 164° (SSE) 1,077 4.3 -12.3°
Enters shadow 00:22:20 14° 105° (ESE) 1,812 5.0 -12.9°
